DW5264 Weather Reports


time (UTC)temp
C
wind
direction
speed
KPH
gust
KPH
rain 1hr
cm
rain 24hr
cm
rain mn
cm
humidity
%
barometer
mb
20260506004535 25 0.0 0.0 0.00 0.00 0.00 63 1006.5
20260506003031 26 0.0 0.0 0.00 0.00 0.00 62 1006.3
20260506001529 26 0.0 0.0 0.00 0.00 0.00 61 1006.0
20260506000046 28 0.0 0.0 0.00 0.00 0.00 59 1005.5
20260505234539 29 0.0 0.0 0.00 0.00 0.00 57 1005.1
20260505233029 31 0.0 0.0 0.00 0.00 0.00 52 1005.0
20260505231528 31 0.0 0.0 0.00 0.00 0.00 50 1004.7
20260505230048 32 0.0 0.0 0.00 0.00 0.00 47 1004.5
20260505224537 33 0.0 0.0 0.00 0.00 0.00 46 1004.1
20260505223027 34 0.0 0.0 0.00 0.00 0.00 46 1003.8
20260505221526 34 0.0 0.0 0.00 0.00 0.00 46 1003.5
20260505220024 34 0.0 0.0 0.00 0.00 0.00 48 1003.7
20260505214523 34 0.0 0.0 0.00 0.00 0.00 48 1003.8
20260505213021 33 0.0 0.0 0.00 0.00 0.00 51 1003.9
20260505211524 33 0.0 0.0 0.00 0.00 0.00 51 1004.1
20260505210014 33 0.0 0.0 0.00 0.00 0.00 52 1004.3
20260505204512 33 0.0 0.0 0.00 0.00 0.00 54 1004.5
20260505203014 33 0.0 0.0 0.00 0.00 0.00 55 1004.8
20260505201508 32 0.0 0.0 0.00 0.00 0.00 56 1004.9
20260505200006 32 0.0 0.0 0.00 0.00 0.00 56 1005.1
20260505194503 32 0.0 0.0 0.00 0.00 0.00 57 1005.0
20260505193002 31 0.0 0.0 0.00 0.00 0.00 60 1005.4
20260505191608 31 0.0 0.0 0.00 0.00 0.00 59 1005.2
20260505190056 30 0.0 0.0 0.00 0.00 0.00 63 1005.2
20260505184553 30 0.0 0.0 0.00 0.00 0.00 62 1005.4
20260505183053 30 0.0 0.0 0.00 0.00 0.00 64 1005.6
20260505181548 29 0.0 0.0 0.00 0.00 0.00 63 1005.6
20260505180054 29 0.0 0.0 0.00 0.00 0.00 64 1005.7
20260505174546 29 0.0 0.0 0.00 0.00 0.00 64 1005.7
20260505173048 29 0.0 0.0 0.00 0.00 0.00 65 1005.9
20260505171547 28 0.0 0.0 0.00 0.00 0.00 66 1005.8
20260505170040 28 0.0 0.0 0.00 0.00 0.00 67 1005.7
20260505164538 28 0.0 0.0 0.00 0.00 0.00 69 1006.0
20260505163036 27 0.0 0.0 0.00 0.00 0.00 69 1005.8
20260505161533 27 0.0 0.0 0.00 0.00 0.00 71 1005.8
20260505153025 26 0.0 0.0 0.00 0.00 0.00 74 1005.8
20260505151521 25 0.0 0.0 0.00 0.00 0.00 77 1005.7
20260505124503 21 0.0 0.0 0.00 0.00 0.00 85 1005.3
20260505123104 21 0.0 0.0 0.00 0.00 0.00 85 1005.3
20260505121624 21 0.0 0.0 0.00 0.00 0.00 85 1004.8
20260505120054 21 0.0 0.0 0.00 0.00 0.00 85 1004.8
20260505114552 21 0.0 0.0 0.00 0.00 0.00 84 1004.6
20260505113055 21 0.0 0.0 0.00 0.00 0.00 84 1004.6
20260505111553 21 0.0 0.0 0.00 0.00 0.00 84 1004.4
20260505101546 22 0.0 0.0 0.00 0.00 0.00 83 1004.5
20260505100108 22 0.0 0.0 0.00 0.00 0.00 83 1004.8
20260505094545 22 0.0 0.0 0.00 0.00 0.00 83 1004.6
20260505093042 22 0.0 0.0 0.00 0.00 0.00 83 1004.7
20260505091555 22 0.0 0.0 0.00 0.00 0.00 82 1004.9
20260505090054 22 0.0 0.0 0.00 0.00 0.00 82 1005.1
20260505084539 22 0.0 0.0 0.00 0.00 0.00 82 1005.0
20260505083047 22 0.0 0.0 0.00 0.00 0.00 81 1005.0
20260505081542 22 0.0 0.0 0.00 0.00 0.00 81 1005.0
20260505080045 22 0.0 0.0 0.00 0.00 0.00 80 1005.1
20260505074533 22 0.0 0.0 0.00 0.00 0.00 79 1005.5
20260505073031 22 0.0 0.0 0.00 0.00 0.00 79 1005.7
20260505071537 23 0.0 0.0 0.00 0.00 0.00 78 1006.0
20260505070029 23 0.0 0.0 0.00 0.00 0.00 77 1006.4
20260505064526 23 0.0 0.0 0.00 0.00 0.00 76 1006.4
20260505063033 23 0.0 0.0 0.00 0.00 0.00 75 1006.6
20260505061532 23 0.0 0.0 0.00 0.00 0.00 74 1006.5
20260505060023 23 0.0 0.0 0.00 0.00 0.00 74 1006.5
20260505054529 23 0.0 0.0 0.00 0.00 0.00 73 1006.4
20260505053018 23 0.0 0.0 0.00 0.00 0.00 73 1006.6
20260505051532 23 0.0 0.0 0.00 0.00 0.00 73 1006.7
20260505041513 23 0.0 0.0 0.00 0.00 0.00 71 1006.8
20260505040014 24 0.0 0.0 0.00 0.00 0.00 71 1006.9
20260505034512 24 0.0 0.0 0.00 0.00 0.00 70 1006.9
20260505033012 24 0.0 0.0 0.00 0.00 0.00 70 1006.7
20260505031523 24 0.0 0.0 0.00 0.00 0.00 70 1007.0
20260505030012 24 0.0 0.0 0.00 0.00 0.00 69 1007.0
20260505024510 24 0.0 0.0 0.00 0.00 0.00 69 1007.0
20260505023009 25 0.0 0.0 0.00 0.00 0.00 68 1007.1
20260505021509 25 0.0 0.0 0.00 0.00 0.00 68 1006.8
20260505020009 25 0.0 0.0 0.00 0.00 0.00 67 1006.8
20260505014514 25 0.0 0.0 0.00 0.00 0.00 67 1006.8
20260505013010 25 0.0 0.0 0.00 0.00 0.00 66 1006.9
20260505011509 25 0.0 0.0 0.00 0.00 0.00 66 1006.8
20260505010013 25 0.0 0.0 0.00 0.00 0.00 65 1006.7